Time,TemperatureF,DewpointF,PressureIn,WindDirection,WindDirectionDegrees,WindSpeedMPH,WindSpeedGustMPH,Humidity,HourlyPrecipIn,Conditions,Clouds,dailyrainin,SoftwareType,DateUTC
2013-04-25 00:04:00,41.7,32.7,29.47,WSW,238,9.0,9.0,70,0.00,RA,,0.00,WeatherDisplay:10.37,2013-04-25 05:04:00,
2013-04-25 00:09:00,41.7,32.3,29.47,WSW,239,9.0,9.0,69,0.00,RA,,0.00,WeatherDisplay:10.37,2013-04-25 05:09:00,
2013-04-25 00:14:00,42.1,32.3,29.47,WSW,240,9.0,10.0,68,0.00,CLR,,0.00,WeatherDisplay:10.37,2013-04-25 05:14:00,
2013-04-25 00:19:00,41.5,32.1,29.47,WSW,240,10.0,10.0,69,0.00,CLR,,0.00,WeatherDisplay:10.37,2013-04-25 05:19:00,
2013-04-25 00:24:00,41.4,32.3,29.47,WSW,242,10.0,10.0,70,0.00,CLR,,0.00,WeatherDisplay:10.37,2013-04-25 05:24:00,
2013-04-25 00:25:00,54.0,30.8,29.59,NW,313,14.0,14.0,41,0.00,CLR,,0.00,WeatherDisplay:10.37,2013-04-25 05:25:00,
2013-04-25 00:29:00,41.4,32.3,29.47,WSW,245,10.0,10.0,70,0.00,CLR,,0.00,WeatherDisplay:10.37,2013-04-25 05:29:00,
2013-04-25 00:30:00,54.0,30.8,29.59,NW,315,14.0,14.0,41,0.00,CLR,,0.00,WeatherDisplay:10.37,2013-04-25 05:30:00,
2013-04-25 00:34:00,41.4,32.3,29.50,WSW,249,10.0,10.0,70,0.00,CLR,,0.00,WeatherDisplay:10.37,2013-04-25 05:34:00,
2013-04-25 00:39:00,41.0,32.0,29.47,WSW,250,9.0,10.0,70,0.00,CLR,,0.00,WeatherDisplay:10.37,2013-04-25 05:39:00,
2013-04-25 00:44:00,40.6,32.3,29.50,WSW,246,9.0,10.0,72,0.00,CLR,,0.00,WeatherDisplay:10.37,2013-04-25 05:44:00,
2013-04-25 00:49:00,40.3,32.3,29.50,WSW,247,9.0,9.0,73,0.00,CLR,,0.00,WeatherDisplay:10.37,2013-04-25 05:49:00,
2013-04-25 00:54:00,40.3,32.3,29.50,WSW,248,8.0,9.0,73,0.00,CLR,,0.00,WeatherDisplay:10.37,2013-04-25 05:54:00,
2013-04-25 00:59:00,40.3,32.3,29.50,WSW,245,8.0,8.0,73,0.00,CLR,,0.00,WeatherDisplay:10.37,2013-04-25 05:59:00,
2013-04-25 01:04:00,39.7,32.1,29.50,WSW,245,8.0,8.0,74,0.00,CLR,,0.00,WeatherDisplay:10.37,2013-04-25 06:04:00,
2013-04-25 01:09:00,39.7,32.1,29.47,WSW,247,8.0,8.0,74,0.00,CLR,,0.00,WeatherDisplay:10.37,2013-04-25 06:09:00,
2013-04-25 01:14:00,40.1,32.5,29.47,WSW,243,8.0,8.0,74,0.00,CLR,,0.00,WeatherDisplay:10.37,2013-04-25 06:14:00,
2013-04-25 01:19:00,39.7,32.1,29.47,WSW,240,8.0,8.0,74,0.00,CLR,,0.00,WeatherDisplay:10.37,2013-04-25 06:19:00,
2013-04-25 01:24:00,39.6,32.0,29.47,WSW,240,8.0,8.0,74,0.00,CLR,,0.00,WeatherDisplay:10.37,2013-04-25 06:24:00,
2013-04-25 01:29:00,39.6,32.0,29.47,WSW,240,8.0,8.0,74,0.00,CLR,,0.00,WeatherDisplay:10.37,2013-04-25 06:29:00,
2013-04-25 01:34:00,39.4,32.1,29.47,WSW,242,8.0,9.0,75,0.00,CLR,,0.00,WeatherDisplay:10.37,2013-04-25 06:34:00,
2013-04-25 01:39:00,39.4,32.1,29.47,WSW,241,9.0,9.0,75,0.00,CLR,,0.00,WeatherDisplay:10.37,2013-04-25 06:39:00,
2013-04-25 01:44:00,39.4,32.1,29.47,WSW,242,9.0,9.0,75,0.00,CLR,,0.00,WeatherDisplay:10.37,2013-04-25 06:44:00,
2013-04-25 01:49:00,39.6,32.0,29.47,WSW,243,9.0,9.0,74,0.00,CLR,,0.00,WeatherDisplay:10.37,2013-04-25 06:49:00,
2013-04-25 01:54:00,39.4,31.8,29.47,WSW,239,9.0,9.0,74,0.00,CLR,,0.00,WeatherDisplay:10.37,2013-04-25 06:54:00,
2013-04-25 01:59:00,39.0,31.8,29.47,SW,233,9.0,10.0,75,0.00,CLR,,0.00,WeatherDisplay:10.37,2013-04-25 06:59:00,
2013-04-25 02:04:00,39.2,31.6,29.47,WSW,239,9.0,10.0,74,0.00,CLR,,0.00,WeatherDisplay:10.37,2013-04-25 07:04:00,
2013-04-25 02:09:00,39.4,31.8,29.47,WSW,242,9.0,10.0,74,0.00,CLR,,0.00,WeatherDisplay:10.37,2013-04-25 07:09:00,
2013-04-25 02:14:00,39.4,31.8,29.47,WSW,245,9.0,10.0,74,0.00,CLR,,0.00,WeatherDisplay:10.37,2013-04-25 07:14:00,
2013-04-25 02:19:00,39.6,31.6,29.47,WSW,241,9.0,10.0,73,0.00,CLR,,0.00,WeatherDisplay:10.37,2013-04-25 07:19:00,
2013-04-25 02:24:00,39.6,31.6,29.47,WSW,238,10.0,10.0,73,0.00,CLR,,0.00,WeatherDisplay:10.37,2013-04-25 07:24:00,
2013-04-25 02:29:00,39.7,31.4,29.47,SW,236,10.0,10.0,72,0.00,CLR,,0.00,WeatherDisplay:10.37,2013-04-25 07:29:00,
2013-04-25 02:34:00,39.6,30.9,29.47,SW,235,10.0,10.0,71,0.00,CLR,,0.00,WeatherDisplay:10.37,2013-04-25 07:34:00,
2013-04-25 02:39:00,39.6,30.9,29.47,SW,233,10.0,10.0,71,0.00,CLR,,0.00,WeatherDisplay:10.37,2013-04-25 07:39:00,
2013-04-25 02:44:00,39.6,30.9,29.47,SW,234,10.0,11.0,71,0.00,CLR,,0.00,WeatherDisplay:10.37,2013-04-25 07:44:00,
2013-04-25 02:49:00,39.6,31.3,29.47,SW,233,10.0,11.0,72,0.00,CLR,,0.00,WeatherDisplay:10.37,2013-04-25 07:49:00,
2013-04-25 02:54:00,39.6,30.9,29.47,SW,232,10.0,11.0,71,0.00,CLR,,0.00,WeatherDisplay:10.37,2013-04-25 07:54:00,
2013-04-25 02:59:00,39.6,30.9,29.47,SW,236,12.0,12.0,71,0.00,CLR,,0.00,WeatherDisplay:10.37,2013-04-25 07:59:00,
2013-04-25 03:04:00,39.7,31.1,29.47,WSW,240,12.0,12.0,71,0.00,CLR,,0.00,WeatherDisplay:10.37,2013-04-25 08:04:00,
2013-04-25 03:09:00,39.9,31.3,29.47,WSW,242,12.0,12.0,71,0.00,CLR,,0.00,WeatherDisplay:10.37,2013-04-25 08:09:00,
2013-04-25 03:14:00,39.7,31.1,29.47,WSW,243,12.0,12.0,71,0.00,CLR,,0.00,WeatherDisplay:10.37,2013-04-25 08:14:00,
2013-04-25 03:19:00,39.7,31.1,29.47,WSW,239,12.0,12.0,71,0.00,CLR,,0.00,WeatherDisplay:10.37,2013-04-25 08:19:00,
2013-04-25 03:24:00,39.6,30.9,29.47,WSW,239,12.0,12.0,71,0.00,CLR,,0.00,WeatherDisplay:10.37,2013-04-25 08:24:00,
2013-04-25 03:29:00,39.4,30.8,29.47,WSW,238,12.0,12.0,71,0.00,CLR,,0.00,WeatherDisplay:10.37,2013-04-25 08:29:00,
2013-04-25 03:34:00,39.2,30.9,29.47,SW,231,12.0,12.0,72,0.00,CLR,,0.00,WeatherDisplay:10.37,2013-04-25 08:34:00,
2013-04-25 03:39:00,39.2,30.9,29.47,SW,232,12.0,12.0,72,0.00,CLR,,0.00,WeatherDisplay:10.37,2013-04-25 08:39:00,
2013-04-25 03:44:00,39.0,31.1,29.47,SW,232,12.0,12.0,73,0.00,CLR,,0.00,WeatherDisplay:10.37,2013-04-25 08:44:00,
2013-04-25 03:49:00,38.8,31.3,29.47,SW,231,12.0,12.0,74,0.00,CLR,,0.00,WeatherDisplay:10.37,2013-04-25 08:49:00,
2013-04-25 03:54:00,38.8,31.3,29.47,SW,231,12.0,12.0,74,0.00,CLR,,0.00,WeatherDisplay:10.37,2013-04-25 08:54:00,
2013-04-25 03:59:00,38.8,31.3,29.47,SW,232,12.0,12.0,74,0.00,CLR,,0.00,WeatherDisplay:10.37,2013-04-25 08:59:00,
2013-04-25 04:04:00,38.8,31.6,29.47,WSW,237,12.0,12.0,75,0.00,CLR,,0.00,WeatherDisplay:10.37,2013-04-25 09:04:00,
2013-04-25 04:09:00,38.8,31.6,29.47,SW,236,12.0,12.0,75,0.00,CLR,,0.00,WeatherDisplay:10.37,2013-04-25 09:09:00,
2013-04-25 04:14:00,38.8,31.6,29.47,SW,232,12.0,12.0,75,0.00,CLR,,0.00,WeatherDisplay:10.37,2013-04-25 09:14:00,
2013-04-25 04:19:00,38.8,31.6,29.44,SW,229,12.0,12.0,75,0.00,CLR,,0.00,WeatherDisplay:10.37,2013-04-25 09:19:00,
2013-04-25 04:24:00,38.8,31.6,29.44,SW,230,12.0,12.0,75,0.00,CLR,,0.00,WeatherDisplay:10.37,2013-04-25 09:24:00,
2013-04-25 04:29:00,39.0,31.8,29.47,SW,235,12.0,12.0,75,0.00,CLR,,0.00,WeatherDisplay:10.37,2013-04-25 09:29:00,
2013-04-25 04:34:00,39.0,31.8,29.47,WSW,240,12.0,12.0,75,0.00,BKN,,0.00,WeatherDisplay:10.37,2013-04-25 09:34:00,
2013-04-25 04:39:00,39.0,31.8,29.47,WSW,241,12.0,12.0,75,0.00,BKN,,0.00,WeatherDisplay:10.37,2013-04-25 09:39:00,
2013-04-25 04:44:00,39.0,31.8,29.47,WSW,240,10.0,12.0,75,0.00,BKN,,0.00,WeatherDisplay:10.37,2013-04-25 09:44:00,
2013-04-25 04:49:00,39.0,31.8,29.47,WSW,240,10.0,11.0,75,0.00,BKN,,0.00,WeatherDisplay:10.37,2013-04-25 09:49:00,
2013-04-25 04:54:00,39.0,31.8,29.47,WSW,240,10.0,11.0,75,0.00,BKN,,0.00,WeatherDisplay:10.37,2013-04-25 09:54:00,
2013-04-25 04:59:00,39.0,31.8,29.47,WSW,242,10.0,11.0,75,0.00,BKN,,0.00,WeatherDisplay:10.37,2013-04-25 09:59:00,
2013-04-25 05:04:00,39.0,31.8,29.47,WSW,245,10.0,10.0,75,0.00,CLR,,0.00,WeatherDisplay:10.37,2013-04-25 10:04:00,
2013-04-25 05:09:00,38.7,31.7,29.47,WSW,249,10.0,10.0,76,0.00,CLR,,0.00,WeatherDisplay:10.37,2013-04-25 10:09:00,
2013-04-25 05:14:00,38.5,31.6,29.47,WSW,253,9.0,10.0,76,0.00,CLR,,0.00,WeatherDisplay:10.37,2013-04-25 10:14:00,
2013-04-25 05:19:00,38.5,31.6,29.47,WSW,250,9.0,10.0,76,0.00,CLR,,0.00,WeatherDisplay:10.37,2013-04-25 10:19:00,
2013-04-25 05:24:00,38.7,31.7,29.47,WSW,250,9.0,9.0,76,0.00,CLR,,0.00,WeatherDisplay:10.37,2013-04-25 10:24:00,
2013-04-25 05:29:00,38.8,31.9,29.47,WSW,252,9.0,9.0,76,0.00,CLR,,0.00,WeatherDisplay:10.37,2013-04-25 10:29:00,
2013-04-25 05:34:00,38.8,31.9,29.47,WSW,257,9.0,9.0,76,0.00,CLR,,0.00,WeatherDisplay:10.37,2013-04-25 10:34:00,
2013-04-25 05:39:00,38.8,31.9,29.47,West,261,9.0,9.0,76,0.00,CLR,,0.00,WeatherDisplay:10.37,2013-04-25 10:39:00,
2013-04-25 05:44:00,38.8,31.9,29.47,WSW,258,8.0,9.0,76,0.00,CLR,,0.00,WeatherDisplay:10.37,2013-04-25 10:44:00,
2013-04-25 05:49:00,38.8,31.9,29.47,West,262,8.0,8.0,76,0.00,CLR,,0.00,WeatherDisplay:10.37,2013-04-25 10:49:00,
2013-04-25 05:54:00,38.7,31.7,29.47,West,263,8.0,8.0,76,0.00,CLR,,0.00,WeatherDisplay:10.37,2013-04-25 10:54:00,
2013-04-25 05:59:00,38.8,31.9,29.47,West,264,8.0,8.0,76,0.00,CLR,,0.00,WeatherDisplay:10.37,2013-04-25 10:59:00,
2013-04-25 06:04:00,38.7,31.7,29.47,West,268,8.0,8.0,76,0.00,CLR,,0.00,WeatherDisplay:10.37,2013-04-25 11:04:00,
2013-04-25 06:09:00,38.7,31.7,29.47,West,267,8.0,8.0,76,0.00,CLR,,0.00,WeatherDisplay:10.37,2013-04-25 11:09:00,
2013-04-25 06:14:00,39.2,31.9,29.47,West,266,9.0,9.0,75,0.00,CLR,,0.00,WeatherDisplay:10.37,2013-04-25 11:14:00,
2013-04-25 06:19:00,39.7,32.5,29.47,West,268,9.0,9.0,75,0.00,CLR,,0.00,WeatherDisplay:10.37,2013-04-25 11:19:00,
2013-04-25 06:24:00,39.7,32.5,29.47,West,269,9.0,9.0,75,0.00,CLR,,0.00,WeatherDisplay:10.37,2013-04-25 11:24:00,
2013-04-25 06:29:00,40.5,32.1,29.47,West,268,9.0,9.0,72,0.00,CLR,,0.00,WeatherDisplay:10.37,2013-04-25 11:29:00,
2013-04-25 06:34:00,41.2,31.8,29.47,West,263,9.0,9.0,69,0.00,CLR,,0.00,WeatherDisplay:10.37,2013-04-25 11:34:00,
2013-04-25 06:39:00,41.4,31.6,29.47,West,263,9.0,9.0,68,0.00,CLR,,0.00,WeatherDisplay:10.37,2013-04-25 11:39:00,
2013-04-25 06:44:00,41.4,31.6,29.47,West,266,8.0,9.0,68,0.00,CLR,,0.00,WeatherDisplay:10.37,2013-04-25 11:44:00,
2013-04-25 06:49:00,41.5,31.8,29.50,West,262,8.0,8.0,68,0.00,CLR,,0.00,WeatherDisplay:10.37,2013-04-25 11:49:00,
2013-04-25 06:54:00,42.3,32.1,29.50,West,262,8.0,8.0,67,0.00,CLR,,0.00,WeatherDisplay:10.37,2013-04-25 11:54:00,
2013-04-25 06:59:00,42.4,31.9,29.50,West,271,8.0,8.0,66,0.00,CLR,,0.00,WeatherDisplay:10.37,2013-04-25 11:59:00,
2013-04-25 07:04:00,42.4,32.3,29.50,West,272,8.0,8.0,67,0.00,CLR,,0.00,WeatherDisplay:10.37,2013-04-25 12:04:00,
2013-04-25 07:09:00,42.4,32.3,29.50,West,268,8.0,8.0,67,0.00,CLR,,0.00,WeatherDisplay:10.37,2013-04-25 12:09:00,
2013-04-25 07:14:00,42.6,32.8,29.50,West,265,8.0,8.0,68,0.00,CLR,,0.00,WeatherDisplay:10.37,2013-04-25 12:14:00,
2013-04-25 07:19:00,42.8,33.0,29.50,West,269,8.0,8.0,68,0.00,CLR,,0.00,WeatherDisplay:10.37,2013-04-25 12:19:00,
2013-04-25 07:24:00,43.2,33.3,29.50,West,273,8.0,8.0,68,0.00,CLR,,0.00,WeatherDisplay:10.37,2013-04-25 12:24:00,
2013-04-25 07:29:00,43.5,33.7,29.50,West,279,8.0,8.0,68,0.00,CLR,,0.00,WeatherDisplay:10.37,2013-04-25 12:29:00,
2013-04-25 07:34:00,44.1,34.2,29.50,WNW,282,9.0,9.0,68,0.00,CLR,,0.00,WeatherDisplay:10.37,2013-04-25 12:34:00,
2013-04-25 07:39:00,44.4,34.5,29.50,WNW,284,9.0,9.0,68,0.00,CLR,,0.00,WeatherDisplay:10.37,2013-04-25 12:39:00,
2013-04-25 07:44:00,44.6,34.3,29.50,WNW,285,9.0,9.0,67,0.00,CLR,,0.00,WeatherDisplay:10.37,2013-04-25 12:44:00,
2013-04-25 07:49:00,45.1,34.8,29.50,WNW,285,9.0,9.0,67,0.00,CLR,,0.00,WeatherDisplay:10.37,2013-04-25 12:49:00,
2013-04-25 07:54:00,45.3,35.0,29.50,WNW,285,9.0,9.0,67,0.00,CLR,,0.00,WeatherDisplay:10.37,2013-04-25 12:54:00,
2013-04-25 07:59:00,45.7,35.0,29.53,WNW,286,10.0,10.0,66,0.00,CLR,,0.00,WeatherDisplay:10.37,2013-04-25 12:59:00,
2013-04-25 08:04:00,46.2,35.9,29.53,WNW,288,10.0,10.0,67,0.00,CLR,,0.00,WeatherDisplay:10.37,2013-04-25 13:04:00,
2013-04-25 08:09:00,46.2,35.5,29.53,WNW,289,10.0,10.0,66,0.00,CLR,,0.00,WeatherDisplay:10.37,2013-04-25 13:09:00,
2013-04-25 08:14:00,46.6,35.4,29.53,WNW,294,10.0,10.0,65,0.00,CLR,,0.00,WeatherDisplay:10.37,2013-04-25 13:14:00,
2013-04-25 08:19:00,46.9,35.0,29.53,WNW,299,10.0,10.0,63,0.00,CLR,,0.00,WeatherDisplay:10.37,2013-04-25 13:19:00,
2013-04-25 08:24:00,47.1,35.2,29.53,NW,304,10.0,10.0,63,0.00,CLR,,0.00,WeatherDisplay:10.37,2013-04-25 13:24:00,
2013-04-25 08:29:00,47.3,34.9,29.53,NW,309,10.0,11.0,62,0.00,CLR,,0.00,WeatherDisplay:10.37,2013-04-25 13:29:00,
2013-04-25 08:34:00,47.5,34.3,29.53,NW,312,10.0,11.0,60,0.00,CLR,,0.00,WeatherDisplay:10.37,2013-04-25 13:34:00,
2013-04-25 08:39:00,47.7,34.4,29.53,NW,312,10.0,11.0,60,0.00,CLR,,0.00,WeatherDisplay:10.37,2013-04-25 13:39:00,
2013-04-25 08:44:00,47.7,34.0,29.53,NW,312,12.0,12.0,59,0.00,CLR,,0.00,WeatherDisplay:10.37,2013-04-25 13:44:00,
2013-04-25 08:49:00,48.0,34.4,29.53,NW,311,12.0,12.0,59,0.00,CLR,,0.00,WeatherDisplay:10.37,2013-04-25 13:49:00,
2013-04-25 08:54:00,48.0,34.4,29.53,NW,314,12.0,12.0,59,0.00,CLR,,0.00,WeatherDisplay:10.37,2013-04-25 13:54:00,
2013-04-25 08:59:00,48.0,34.4,29.53,NW,316,12.0,12.0,59,0.00,CLR,,0.00,WeatherDisplay:10.37,2013-04-25 13:59:00,
2013-04-25 09:04:00,48.0,34.4,29.53,NW,317,12.0,12.0,59,0.00,CLR,,0.00,WeatherDisplay:10.37,2013-04-25 14:04:00,
2013-04-25 09:09:00,48.0,34.4,29.53,NW,320,12.0,12.0,59,0.00,CLR,,0.00,WeatherDisplay:10.37,2013-04-25 14:09:00,
2013-04-25 09:14:00,48.0,34.4,29.56,NW,318,12.0,12.0,59,0.00,CLR,,0.00,WeatherDisplay:10.37,2013-04-25 14:14:00,
2013-04-25 09:19:00,48.0,34.4,29.56,NW,319,12.0,12.0,59,0.00,CLR,,0.00,WeatherDisplay:10.37,2013-04-25 14:19:00,
2013-04-25 09:24:00,48.0,34.4,29.56,NW,322,12.0,12.0,59,0.00,CLR,,0.00,WeatherDisplay:10.37,2013-04-25 14:24:00,
2013-04-25 09:29:00,50.4,31.9,29.56,NW,320,12.0,12.0,49,0.00,CLR,,0.00,WeatherDisplay:10.37,2013-04-25 14:29:00,
2013-04-25 09:34:00,49.8,30.4,29.56,NW,313,12.0,12.0,47,0.00,CLR,,0.00,WeatherDisplay:10.37,2013-04-25 14:34:00,
2013-04-25 09:39:00,49.8,30.4,29.56,NW,314,12.0,12.0,47,0.00,CLR,,0.00,WeatherDisplay:10.37,2013-04-25 14:39:00,
2013-04-25 09:44:00,50.2,29.1,29.56,NW,318,12.0,12.0,44,0.00,CLR,,0.00,WeatherDisplay:10.37,2013-04-25 14:44:00,
2013-04-25 09:49:00,50.4,29.2,29.56,NW,316,13.0,13.0,44,0.00,CLR,,0.00,WeatherDisplay:10.37,2013-04-25 14:49:00,
2013-04-25 09:54:00,50.4,28.1,29.56,NW,318,13.0,13.0,42,0.00,CLR,,0.00,WeatherDisplay:10.37,2013-04-25 14:54:00,
2013-04-25 09:59:00,51.1,28.2,29.56,NW,320,13.0,13.0,41,0.00,CLR,,0.00,WeatherDisplay:10.37,2013-04-25 14:59:00,
2013-04-25 10:04:00,51.3,27.7,29.56,NW,324,13.0,13.0,40,0.00,CLR,,0.00,WeatherDisplay:10.37,2013-04-25 15:04:00,
2013-04-25 10:09:00,50.9,27.4,29.56,NW,321,13.0,13.0,40,0.00,CLR,,0.00,WeatherDisplay:10.37,2013-04-25 15:09:00,
2013-04-25 10:14:00,51.4,26.6,29.56,NW,317,13.0,13.0,38,0.00,CLR,,0.00,WeatherDisplay:10.37,2013-04-25 15:14:00,
2013-04-25 10:19:00,51.6,27.4,29.56,NW,313,13.0,13.0,39,0.00,CLR,,0.00,WeatherDisplay:10.37,2013-04-25 15:19:00,
2013-04-25 10:24:00,51.4,27.3,29.59,NW,308,13.0,13.0,39,0.00,CLR,,0.00,WeatherDisplay:10.37,2013-04-25 15:24:00,
2013-04-25 10:29:00,51.8,28.2,29.59,NW,308,13.0,13.0,40,0.00,CLR,,0.00,WeatherDisplay:10.37,2013-04-25 15:29:00,
2013-04-25 10:34:00,52.0,28.4,29.59,NW,325,13.0,13.0,40,0.00,CLR,,0.00,WeatherDisplay:10.37,2013-04-25 15:34:00,
2013-04-25 10:39:00,52.0,27.8,29.59,NW,323,13.0,13.0,39,0.00,CLR,,0.00,WeatherDisplay:10.37,2013-04-25 15:39:00,
2013-04-25 10:44:00,51.6,28.1,29.59,NW,316,13.0,13.0,40,0.00,CLR,,0.00,WeatherDisplay:10.37,2013-04-25 15:44:00,
2013-04-25 10:49:00,52.3,28.7,29.59,NW,324,13.0,13.0,40,0.00,CLR,,0.00,WeatherDisplay:10.37,2013-04-25 15:49:00,
2013-04-25 10:54:00,52.3,29.3,29.59,NW,324,13.0,13.0,41,0.00,CLR,,0.00,WeatherDisplay:10.37,2013-04-25 15:54:00,
2013-04-25 10:59:00,52.7,30.2,29.59,NW,315,14.0,14.0,42,0.00,CLR,,0.00,WeatherDisplay:10.37,2013-04-25 15:59:00,
2013-04-25 11:04:00,52.3,28.7,29.59,NW,324,14.0,14.0,40,0.00,CLR,,0.00,WeatherDisplay:10.37,2013-04-25 16:04:00,
2013-04-25 11:09:00,53.1,30.0,29.59,NNW,327,14.0,14.0,41,0.00,CLR,,0.00,WeatherDisplay:10.37,2013-04-25 16:09:00,
2013-04-25 11:14:00,52.7,29.0,29.59,NW,319,14.0,14.0,40,0.00,CLR,,0.00,WeatherDisplay:10.37,2013-04-25 16:14:00,
2013-04-25 11:19:00,53.2,30.7,29.59,NW,312,14.0,14.0,42,0.00,CLR,,0.00,WeatherDisplay:10.37,2013-04-25 16:19:00,
2013-04-25 11:34:00,54.5,31.9,29.59,NW,312,14.0,14.0,42,0.00,CLR,,0.00,WeatherDisplay:10.37,2013-04-25 16:34:00,
2013-04-25 11:39:00,54.9,32.2,29.59,NW,310,13.0,14.0,42,0.00,CLR,,0.00,WeatherDisplay:10.37,2013-04-25 16:39:00,
2013-04-25 11:49:00,54.9,29.7,29.59,NW,312,13.0,13.0,38,0.00,CLR,,0.00,WeatherDisplay:10.37,2013-04-25 16:49:00,
2013-04-25 11:54:00,54.7,30.8,29.59,NW,315,13.0,13.0,40,0.00,CLR,,0.00,WeatherDisplay:10.37,2013-04-25 16:54:00,
2013-04-25 11:59:00,54.5,29.4,29.59,NW,315,13.0,13.0,38,0.00,CLR,,0.00,WeatherDisplay:10.37,2013-04-25 16:59:00,
2013-04-25 12:04:00,55.0,31.1,29.59,NW,318,13.0,13.0,40,0.00,SCT,,0.00,WeatherDisplay:10.37,2013-04-25 17:04:00,
2013-04-25 12:09:00,55.0,30.5,29.59,NW,317,13.0,13.0,39,0.00,SCT,,0.00,WeatherDisplay:10.37,2013-04-25 17:09:00,
2013-04-25 12:14:00,54.7,28.2,29.59,NW,315,13.0,13.0,36,0.00,SCT,,0.00,WeatherDisplay:10.37,2013-04-25 17:14:00,
2013-04-25 12:19:00,54.7,28.2,29.59,NW,319,14.0,14.0,36,0.00,SCT,,0.00,WeatherDisplay:10.37,2013-04-25 17:19:00,
2013-04-25 12:24:00,55.4,29.5,29.59,NW,324,14.0,14.0,37,0.00,SCT,,0.00,WeatherDisplay:10.37,2013-04-25 17:24:00,
2013-04-25 12:29:00,56.1,30.8,29.59,NW,325,13.0,13.0,38,0.00,SCT,,0.00,WeatherDisplay:10.37,2013-04-25 17:29:00,
2013-04-25 12:34:00,55.6,28.3,29.59,NNW,328,14.0,14.0,35,0.00,SCT,,0.00,WeatherDisplay:10.37,2013-04-25 17:34:00,
2013-04-25 12:39:00,56.3,29.7,29.59,NNW,327,14.0,14.0,36,0.00,SCT,,0.00,WeatherDisplay:10.37,2013-04-25 17:39:00,
2013-04-25 12:44:00,55.8,28.5,29.59,NNW,327,14.0,14.0,35,0.00,SCT,,0.00,WeatherDisplay:10.37,2013-04-25 17:44:00,
2013-04-25 12:49:00,58.5,32.3,29.59,NW,322,14.0,14.0,37,0.00,CLR,,0.00,WeatherDisplay:10.37,2013-04-25 17:49:00,
2013-04-25 12:54:00,59.0,30.6,29.59,NW,320,14.0,14.0,34,0.00,CLR,,0.00,WeatherDisplay:10.37,2013-04-25 17:54:00,
2013-04-25 12:59:00,58.1,29.8,29.59,NW,304,14.0,14.0,34,0.00,CLR,,0.00,WeatherDisplay:10.37,2013-04-25 17:59:00,
2013-04-25 13:04:00,59.4,30.2,29.59,NW,307,15.0,15.0,33,0.00,CLR,,0.00,WeatherDisplay:10.37,2013-04-25 18:04:00,
2013-04-25 13:09:00,60.1,32.3,29.59,NW,309,15.0,15.0,35,0.00,CLR,,0.00,WeatherDisplay:10.37,2013-04-25 18:09:00,
2013-04-25 13:14:00,59.7,29.0,29.59,NW,314,15.0,15.0,31,0.00,CLR,,0.00,WeatherDisplay:10.37,2013-04-25 18:14:00,
2013-04-25 13:19:00,58.5,29.4,29.59,NW,317,15.0,15.0,33,0.00,CLR,,0.00,WeatherDisplay:10.37,2013-04-25 18:19:00,
2013-04-25 13:24:00,61.0,33.1,29.59,NW,318,15.0,15.0,35,0.00,CLR,,0.00,WeatherDisplay:10.37,2013-04-25 18:24:00,
2013-04-25 13:34:00,62.4,30.5,29.59,NW,314,13.0,14.0,30,0.00,CLR,,0.00,WeatherDisplay:10.37,2013-04-25 18:34:00,
2013-04-25 13:39:00,58.5,27.1,29.59,NW,314,13.0,13.0,30,0.00,CLR,,0.00,WeatherDisplay:10.37,2013-04-25 18:39:00,
2013-04-25 13:44:00,60.6,28.2,29.59,NW,322,14.0,14.0,29,0.00,CLR,,0.00,WeatherDisplay:10.37,2013-04-25 18:44:00,
2013-04-25 13:49:00,61.5,28.9,29.59,NW,316,14.0,14.0,29,0.00,SCT,,0.00,WeatherDisplay:10.37,2013-04-25 18:49:00,
2013-04-25 13:54:00,61.5,28.9,29.59,NW,319,14.0,14.0,29,0.00,SCT,,0.00,WeatherDisplay:10.37,2013-04-25 18:54:00,
2013-04-25 13:59:00,64.0,32.0,29.59,NW,324,14.0,14.0,30,0.00,SCT,,0.00,WeatherDisplay:10.37,2013-04-25 18:59:00,
2013-04-25 14:04:00,61.9,27.5,29.59,NW,305,14.0,14.0,27,0.00,CLR,,0.00,WeatherDisplay:10.37,2013-04-25 19:04:00,
2013-04-25 14:09:00,61.7,29.1,29.59,WNW,302,14.0,14.0,29,0.00,CLR,,0.00,WeatherDisplay:10.37,2013-04-25 19:09:00,
2013-04-25 14:14:00,63.1,31.2,29.59,NW,305,14.0,14.0,30,0.00,CLR,,0.00,WeatherDisplay:10.37,2013-04-25 19:14:00,
2013-04-25 14:19:00,61.5,28.1,29.59,NW,316,14.0,14.0,28,0.00,CLR,,0.00,WeatherDisplay:10.37,2013-04-25 19:19:00,
2013-04-25 14:24:00,60.8,26.6,29.59,NW,318,14.0,14.0,27,0.00,CLR,,0.00,WeatherDisplay:10.37,2013-04-25 19:24:00,
2013-04-25 14:29:00,60.6,29.0,29.59,NW,312,14.0,14.0,30,0.00,CLR,,0.00,WeatherDisplay:10.37,2013-04-25 19:29:00,
2013-04-25 14:34:00,61.3,27.9,29.59,NW,311,14.0,14.0,28,0.00,CLR,,0.00,WeatherDisplay:10.37,2013-04-25 19:34:00,
2013-04-25 14:39:00,62.1,31.0,29.59,NW,304,13.0,14.0,31,0.00,CLR,,0.00,WeatherDisplay:10.37,2013-04-25 19:39:00,
2013-04-25 14:44:00,61.3,30.4,29.59,WNW,295,13.0,14.0,31,0.00,CLR,,0.00,WeatherDisplay:10.37,2013-04-25 19:44:00,
2013-04-25 14:49:00,62.8,32.5,29.59,WNW,300,13.0,13.0,32,0.00,CLR,,0.00,WeatherDisplay:10.37,2013-04-25 19:49:00,
2013-04-25 14:54:00,64.0,32.0,29.59,NW,309,13.0,13.0,30,0.00,CLR,,0.00,WeatherDisplay:10.37,2013-04-25 19:54:00,
2013-04-25 14:59:00,61.2,28.6,29.59,NW,307,13.0,13.0,29,0.00,CLR,,0.00,WeatherDisplay:10.37,2013-04-25 19:59:00,
2013-04-25 15:04:00,63.5,33.1,29.56,NW,304,13.0,13.0,32,0.00,CLR,,0.00,WeatherDisplay:10.37,2013-04-25 20:04:00,
2013-04-25 15:09:00,63.5,33.1,29.56,NW,304,13.0,13.0,32,0.00,CLR,,0.00,WeatherDisplay:10.37,2013-04-25 20:09:00,
2013-04-25 15:14:00,62.4,30.5,29.56,WNW,296,13.0,13.0,30,0.00,CLR,,0.00,WeatherDisplay:10.37,2013-04-25 20:14:00,
2013-04-25 15:19:00,63.7,31.6,29.56,WNW,302,13.0,13.0,30,0.00,CLR,,0.00,WeatherDisplay:10.37,2013-04-25 20:19:00,
2013-04-25 15:24:00,62.6,30.7,29.56,WNW,301,13.0,13.0,30,0.00,CLR,,0.00,WeatherDisplay:10.37,2013-04-25 20:24:00,
2013-04-25 15:34:00,61.2,30.3,29.56,WNW,295,12.0,13.0,31,0.00,CLR,,0.00,WeatherDisplay:10.37,2013-04-25 20:34:00,
2013-04-25 15:39:00,61.9,30.9,29.56,WNW,303,12.0,12.0,31,0.00,CLR,,0.00,WeatherDisplay:10.37,2013-04-25 20:39:00,
2013-04-25 15:44:00,62.2,31.2,29.56,NW,317,12.0,12.0,31,0.00,CLR,,0.00,WeatherDisplay:10.37,2013-04-25 20:44:00,
2013-04-25 15:49:00,61.0,27.6,29.56,NW,315,12.0,12.0,28,0.00,CLR,,0.00,WeatherDisplay:10.37,2013-04-25 20:49:00,
2013-04-25 15:54:00,61.0,29.3,29.56,NW,311,12.0,12.0,30,0.00,CLR,,0.00,WeatherDisplay:10.37,2013-04-25 20:54:00,
2013-04-25 15:59:00,63.7,31.6,29.56,NW,305,12.0,12.0,30,0.00,CLR,,0.00,WeatherDisplay:10.37,2013-04-25 20:59:00,
2013-04-25 16:04:00,63.3,31.3,29.56,WNW,300,12.0,12.0,30,0.00,CLR,,0.00,WeatherDisplay:10.37,2013-04-25 21:04:00,
2013-04-25 16:09:00,64.2,32.1,29.56,WNW,302,13.0,13.0,30,0.00,CLR,,0.00,WeatherDisplay:10.37,2013-04-25 21:09:00,
2013-04-25 16:14:00,65.3,32.2,29.56,WNW,303,13.0,13.0,29,0.00,CLR,,0.00,WeatherDisplay:10.37,2013-04-25 21:14:00,
2013-04-25 16:19:00,66.0,32.0,29.56,WNW,303,13.0,13.0,28,0.00,CLR,,0.00,WeatherDisplay:10.37,2013-04-25 21:19:00,
2013-04-25 16:24:00,66.0,31.1,29.56,WNW,299,13.0,13.0,27,0.00,CLR,,0.00,WeatherDisplay:10.37,2013-04-25 21:24:00,
2013-04-25 16:29:00,65.8,31.8,29.56,WNW,287,12.0,13.0,28,0.00,CLR,,0.00,WeatherDisplay:10.37,2013-04-25 21:29:00,
2013-04-25 16:34:00,65.5,32.4,29.56,West,279,12.0,12.0,29,0.00,CLR,,0.00,WeatherDisplay:10.37,2013-04-25 21:34:00,
2013-04-25 16:39:00,65.5,32.4,29.56,WNW,283,12.0,12.0,29,0.00,CLR,,0.00,WeatherDisplay:10.37,2013-04-25 21:39:00,
2013-04-25 16:44:00,64.9,32.7,29.56,WNW,300,10.0,11.0,30,0.00,CLR,,0.00,WeatherDisplay:10.37,2013-04-25 21:44:00,
2013-04-25 16:49:00,65.5,33.2,29.56,WNW,297,10.0,11.0,30,0.00,SCT,,0.00,WeatherDisplay:10.37,2013-04-25 21:49:00,
2013-04-25 16:54:00,63.9,30.1,29.56,WNW,293,10.0,10.0,28,0.00,SCT,,0.00,WeatherDisplay:10.37,2013-04-25 21:54:00,
2013-04-25 16:59:00,61.5,29.8,29.56,NW,305,10.0,10.0,30,0.00,SCT,,0.00,WeatherDisplay:10.37,2013-04-25 21:59:00,
2013-04-25 17:04:00,60.8,29.9,29.56,NW,307,10.0,10.0,31,0.00,CLR,,0.00,WeatherDisplay:10.37,2013-04-25 22:04:00,
2013-04-25 17:09:00,60.3,30.3,29.56,NW,307,10.0,10.0,32,0.00,CLR,,0.00,WeatherDisplay:10.37,2013-04-25 22:09:00,
2013-04-25 17:14:00,59.9,29.9,29.56,NW,325,9.0,10.0,32,0.00,CLR,,0.00,WeatherDisplay:10.37,2013-04-25 22:14:00,
2013-04-25 17:19:00,60.1,30.9,29.56,NW,319,9.0,9.0,33,0.00,CLR,,0.00,WeatherDisplay:10.37,2013-04-25 22:19:00,
2013-04-25 17:24:00,60.1,30.1,29.56,NW,306,9.0,9.0,32,0.00,CLR,,0.00,WeatherDisplay:10.37,2013-04-25 22:24:00,
2013-04-25 17:29:00,60.3,31.0,29.56,WNW,285,9.0,9.0,33,0.00,CLR,,0.00,WeatherDisplay:10.37,2013-04-25 22:29:00,
2013-04-25 17:34:00,60.4,31.9,29.56,West,267,9.0,9.0,34,0.00,CLR,,0.00,WeatherDisplay:10.37,2013-04-25 22:34:00,
2013-04-25 17:39:00,60.4,31.9,29.56,West,266,8.0,9.0,34,0.00,CLR,,0.00,WeatherDisplay:10.37,2013-04-25 22:39:00,
2013-04-25 17:44:00,60.3,32.5,29.56,West,265,8.0,8.0,35,0.00,CLR,,0.00,WeatherDisplay:10.37,2013-04-25 22:44:00,
2013-04-25 17:49:00,60.1,32.3,29.56,West,277,8.0,8.0,35,0.00,CLR,,0.00,WeatherDisplay:10.37,2013-04-25 22:49:00,
2013-04-25 17:54:00,60.4,32.6,29.56,WNW,287,8.0,8.0,35,0.00,CLR,,0.00,WeatherDisplay:10.37,2013-04-25 22:54:00,
2013-04-25 17:59:00,59.7,30.5,29.56,WNW,297,8.0,8.0,33,0.00,CLR,,0.00,WeatherDisplay:10.37,2013-04-25 22:59:00,
2013-04-25 18:04:00,59.9,31.4,29.56,NW,314,7.0,8.0,34,0.00,CLR,,0.00,WeatherDisplay:10.37,2013-04-25 23:04:00,
2013-04-25 18:09:00,59.7,31.3,29.56,NW,307,7.0,7.0,34,0.00,CLR,,0.00,WeatherDisplay:10.37,2013-04-25 23:09:00,
2013-04-25 18:14:00,59.7,32.0,29.56,West,278,7.0,7.0,35,0.00,CLR,,0.00,WeatherDisplay:10.37,2013-04-25 23:14:00,
2013-04-25 18:19:00,59.4,30.2,29.56,WNW,288,6.0,7.0,33,0.00,CLR,,0.00,WeatherDisplay:10.37,2013-04-25 23:19:00,
2013-04-25 18:24:00,59.4,30.2,29.56,WNW,288,7.0,7.0,33,0.00,CLR,,0.00,WeatherDisplay:10.37,2013-04-25 23:24:00,
2013-04-25 18:29:00,59.7,32.0,29.56,West,266,6.0,7.0,35,0.00,CLR,,0.00,WeatherDisplay:10.37,2013-04-25 23:29:00,
2013-04-25 18:34:00,59.0,30.6,29.56,West,265,6.0,6.0,34,0.00,CLR,,0.00,WeatherDisplay:10.37,2013-04-25 23:34:00,
2013-04-25 18:39:00,59.0,30.6,29.56,WNW,284,6.0,6.0,34,0.00,CLR,,0.00,WeatherDisplay:10.37,2013-04-25 23:39:00,
2013-04-25 18:44:00,59.7,32.0,29.56,WNW,300,5.0,6.0,35,0.00,CLR,,0.00,WeatherDisplay:10.37,2013-04-25 23:44:00,
2013-04-25 18:49:00,59.4,31.7,29.56,WNW,291,5.0,5.0,35,0.00,CLR,,0.00,WeatherDisplay:10.37,2013-04-25 23:49:00,
2013-04-25 18:54:00,59.2,31.5,29.56,WNW,286,5.0,5.0,35,0.00,CLR,,0.00,WeatherDisplay:10.37,2013-04-25 23:54:00,
2013-04-25 18:59:00,58.6,31.7,29.56,West,263,5.0,5.0,36,0.00,CLR,,0.00,WeatherDisplay:10.37,2013-04-25 23:59:00,
2013-04-25 19:04:00,58.3,33.4,29.56,WSW,257,3.0,5.0,39,0.00,CLR,,0.00,WeatherDisplay:10.37,2013-04-26 00:04:00,
2013-04-25 19:09:00,58.1,33.9,29.56,West,260,3.0,4.0,40,0.00,CLR,,0.00,WeatherDisplay:10.37,2013-04-26 00:09:00,
2013-04-25 19:14:00,57.6,32.8,29.56,West,265,3.0,3.0,39,0.00,CLR,,0.00,WeatherDisplay:10.37,2013-04-26 00:14:00,
2013-04-25 19:19:00,57.4,32.6,29.56,West,262,2.0,3.0,39,0.00,CLR,,0.00,WeatherDisplay:10.37,2013-04-26 00:19:00,
2013-04-25 19:24:00,57.0,33.5,29.56,West,262,3.0,3.0,41,0.00,CLR,,0.00,WeatherDisplay:10.37,2013-04-26 00:24:00,
2013-04-25 19:29:00,56.5,33.0,29.56,West,265,2.0,3.0,41,0.00,CLR,,0.00,WeatherDisplay:10.37,2013-04-26 00:29:00,
2013-04-25 19:34:00,55.8,33.6,29.56,West,262,2.0,3.0,43,0.00,CLR,,0.00,WeatherDisplay:10.37,2013-04-26 00:34:00,
2013-04-25 19:39:00,55.2,33.7,29.56,West,260,2.0,2.0,44,0.00,CLR,,0.00,WeatherDisplay:10.37,2013-04-26 00:39:00,
2013-04-25 19:44:00,54.3,32.3,29.56,West,263,1.0,2.0,43,0.00,CLR,,0.00,WeatherDisplay:10.37,2013-04-26 00:44:00,
2013-04-25 19:49:00,54.0,32.0,29.56,West,265,1.0,1.0,43,0.00,CLR,,0.00,WeatherDisplay:10.37,2013-04-26 00:49:00,
2013-04-25 19:54:00,53.8,32.9,29.56,West,265,1.0,1.0,45,0.00,CLR,,0.00,WeatherDisplay:10.37,2013-04-26 00:54:00,
2013-04-25 19:59:00,53.1,34.4,29.56,West,263,1.0,1.0,49,0.00,CLR,,0.00,WeatherDisplay:10.37,2013-04-26 00:59:00,
2013-04-25 20:04:00,52.5,35.4,29.56,West,260,1.0,1.0,52,0.00,CLR,,0.00,WeatherDisplay:10.37,2013-04-26 01:04:00,
2013-04-25 20:09:00,52.5,35.4,29.56,West,260,1.0,1.0,52,0.00,CLR,,0.00,WeatherDisplay:10.37,2013-04-26 01:09:00,
2013-04-25 20:14:00,51.3,35.2,29.56,West,260,0.0,1.0,54,0.00,CLR,,0.00,WeatherDisplay:10.37,2013-04-26 01:14:00,
2013-04-25 20:19:00,50.7,35.1,29.56,West,260,0.0,0.0,55,0.00,CLR,,0.00,WeatherDisplay:10.37,2013-04-26 01:19:00,
2013-04-25 20:24:00,50.4,35.2,29.56,West,261,0.0,0.0,56,0.00,CLR,,0.00,WeatherDisplay:10.37,2013-04-26 01:24:00,
2013-04-25 20:29:00,49.6,35.0,29.56,West,264,0.0,0.0,57,0.00,CLR,,0.00,WeatherDisplay:10.37,2013-04-26 01:29:00,
2013-04-25 20:34:00,49.6,36.3,29.56,West,260,0.0,0.0,60,0.00,CLR,,0.00,WeatherDisplay:10.37,2013-04-26 01:34:00,
2013-04-25 20:39:00,49.6,36.7,29.56,WSW,254,0.0,0.0,61,0.00,CLR,,0.00,WeatherDisplay:10.37,2013-04-26 01:39:00,
2013-04-25 20:44:00,49.6,37.6,29.56,WSW,237,0.0,0.0,63,0.00,CLR,,0.00,WeatherDisplay:10.37,2013-04-26 01:44:00,
2013-04-25 20:49:00,49.6,37.1,29.56,SW,230,0.0,0.0,62,0.00,CLR,,0.00,WeatherDisplay:10.37,2013-04-26 01:49:00,
2013-04-25 20:54:00,49.8,37.3,29.56,SW,230,0.0,0.0,62,0.00,CLR,,0.00,WeatherDisplay:10.37,2013-04-26 01:54:00,
2013-04-25 20:59:00,49.6,37.1,29.56,SW,230,0.0,0.0,62,0.00,CLR,,0.00,WeatherDisplay:10.37,2013-04-26 01:59:00,
2013-04-25 21:04:00,49.5,36.6,29.56,SW,230,0.0,0.0,61,0.00,CLR,,0.00,WeatherDisplay:10.37,2013-04-26 02:04:00,
2013-04-25 21:09:00,49.3,36.4,29.56,SW,230,0.0,0.0,61,0.00,CLR,,0.00,WeatherDisplay:10.37,2013-04-26 02:09:00,
2013-04-25 21:14:00,49.3,36.4,29.56,SW,230,0.0,0.0,61,0.00,CLR,,0.00,WeatherDisplay:10.37,2013-04-26 02:14:00,
2013-04-25 21:19:00,49.3,36.4,29.56,SW,230,0.0,0.0,61,0.00,CLR,,0.00,WeatherDisplay:10.37,2013-04-26 02:19:00,
2013-04-25 21:24:00,49.1,36.6,29.56,SW,230,0.0,0.0,62,0.00,CLR,,0.00,WeatherDisplay:10.37,2013-04-26 02:24:00,
2013-04-25 21:29:00,48.7,36.7,29.59,SW,228,0.0,0.0,63,0.00,CLR,,0.00,WeatherDisplay:10.37,2013-04-26 02:29:00,
2013-04-25 21:34:00,48.4,36.4,29.59,SW,221,0.0,0.0,63,0.00,CLR,,0.00,WeatherDisplay:10.37,2013-04-26 02:34:00,
2013-04-25 21:39:00,48.4,36.8,29.59,SW,220,0.0,0.0,64,0.00,CLR,,0.00,WeatherDisplay:10.37,2013-04-26 02:39:00,
2013-04-25 21:44:00,47.8,36.6,29.59,SW,220,0.0,0.0,65,0.00,CLR,,0.00,WeatherDisplay:10.37,2013-04-26 02:44:00,
2013-04-25 21:49:00,48.0,36.8,29.59,SW,216,0.0,0.0,65,0.00,CLR,,0.00,WeatherDisplay:10.37,2013-04-26 02:49:00,
2013-04-25 21:54:00,48.0,36.8,29.59,SW,215,0.0,0.0,65,0.00,CLR,,0.00,WeatherDisplay:10.37,2013-04-26 02:54:00,
2013-04-25 21:59:00,47.7,36.5,29.59,SW,215,0.0,0.0,65,0.00,CLR,,0.00,WeatherDisplay:10.37,2013-04-26 02:59:00,
2013-04-25 22:04:00,48.0,36.8,29.59,SW,215,0.0,0.0,65,0.00,CLR,,0.00,WeatherDisplay:10.37,2013-04-26 03:04:00,
2013-04-25 22:09:00,48.0,36.8,29.59,SW,215,0.0,0.0,65,0.00,CLR,,0.00,WeatherDisplay:10.37,2013-04-26 03:09:00,
2013-04-25 22:14:00,47.8,37.0,29.59,SSW,213,0.0,0.0,66,0.00,CLR,,0.00,WeatherDisplay:10.37,2013-04-26 03:14:00,
2013-04-25 22:19:00,47.8,37.0,29.59,SSE,167,1.0,1.0,66,0.00,CLR,,0.00,WeatherDisplay:10.37,2013-04-26 03:19:00,
2013-04-25 22:24:00,47.8,37.0,29.59,SSE,156,1.0,1.0,66,0.00,CLR,,0.00,WeatherDisplay:10.37,2013-04-26 03:24:00,
2013-04-25 22:29:00,47.7,36.9,29.59,SSE,155,2.0,2.0,66,0.00,CLR,,0.00,WeatherDisplay:10.37,2013-04-26 03:29:00,
2013-04-25 22:34:00,47.1,36.7,29.59,SSE,155,2.0,2.0,67,0.00,CLR,,0.00,WeatherDisplay:10.37,2013-04-26 03:34:00,
2013-04-25 22:39:00,47.1,36.7,29.59,SSE,155,2.0,2.0,67,0.00,CLR,,0.00,WeatherDisplay:10.37,2013-04-26 03:39:00,
2013-04-25 22:44:00,46.9,36.9,29.59,SSE,155,2.0,3.0,68,0.00,CLR,,0.00,WeatherDisplay:10.37,2013-04-26 03:44:00,
2013-04-25 22:49:00,46.8,36.8,29.59,SSE,155,2.0,3.0,68,0.00,CLR,,0.00,WeatherDisplay:10.37,2013-04-26 03:49:00,
2013-04-25 22:54:00,46.8,36.8,29.59,SSE,153,2.0,3.0,68,0.00,CLR,,0.00,WeatherDisplay:10.37,2013-04-26 03:54:00,
2013-04-25 22:59:00,46.9,36.9,29.59,SSE,154,2.0,3.0,68,0.00,CLR,,0.00,WeatherDisplay:10.37,2013-04-26 03:59:00,
2013-04-25 23:04:00,46.8,36.8,29.56,SSE,155,3.0,3.0,68,0.00,CLR,,0.00,WeatherDisplay:10.37,2013-04-26 04:04:00,
2013-04-25 23:09:00,46.8,36.8,29.59,SSE,155,3.0,3.0,68,0.00,CLR,,0.00,WeatherDisplay:10.37,2013-04-26 04:09:00,
2013-04-25 23:14:00,46.9,36.5,29.59,SSE,155,3.0,3.0,67,0.00,CLR,,0.00,WeatherDisplay:10.37,2013-04-26 04:14:00,
2013-04-25 23:19:00,46.8,36.4,29.59,SSE,159,3.0,4.0,67,0.00,CLR,,0.00,WeatherDisplay:10.37,2013-04-26 04:19:00,
2013-04-25 23:24:00,46.8,36.4,29.59,SSE,158,5.0,5.0,67,0.00,CLR,,0.00,WeatherDisplay:10.37,2013-04-26 04:24:00,
2013-04-25 23:29:00,46.6,36.2,29.59,SSE,155,5.0,5.0,67,0.00,CLR,,0.00,WeatherDisplay:10.37,2013-04-26 04:29:00,
2013-04-25 23:34:00,46.4,36.0,29.59,SSE,162,5.0,5.0,67,0.00,CLR,,0.00,WeatherDisplay:10.37,2013-04-26 04:34:00,
2013-04-25 23:39:00,46.4,36.0,29.59,South,169,5.0,5.0,67,0.00,CLR,,0.00,WeatherDisplay:10.37,2013-04-26 04:39:00,
2013-04-25 23:44:00,45.9,36.3,29.56,SSE,168,5.0,5.0,69,0.00,CLR,,0.00,WeatherDisplay:10.37,2013-04-26 04:44:00,
2013-04-25 23:49:00,45.7,36.5,29.56,SSE,158,6.0,6.0,70,0.00,CLR,,0.00,WeatherDisplay:10.37,2013-04-26 04:49:00,
2013-04-25 23:54:00,45.7,36.5,29.56,SSE,156,6.0,6.0,70,0.00,CLR,,0.00,WeatherDisplay:10.37,2013-04-26 04:54:00,
2013-04-25 23:59:00,45.7,36.5,29.56,SSE,164,6.0,6.0,70,0.00,CLR,,0.00,WeatherDisplay:10.37,2013-04-26 04:59:00,